STARLINK BM (44294 NORAD) Tracking and Keplerian Element Data

This shows tracking and keplerian element data for the satellite.

Feedback or suggestion? Click here.




ElementValue
Catalog44294
NameSTARLINK BM
Epoch Orbit387
Epoch Day173.89285367
Epoch Year2019
RAAN37.8262
Inclination53.0001
Eccentricity0.0001804
Argument of Perigee96.9619
Mean Anonmoly263.1574
Mean Motion15.05473192
Decay Rate-5.106E-05
L11 44294U 19029BM 19173.89285367 -.00005106 00000-0 -33250-3 0 9993
L22 44294 53.0001 37.8262 0001804 96.9619 263.1574 15.05473192 3878

Live tracking and technical data element details for STARLINK BM (NORAD 44294). STARLINK BM can be tracked NOW for your location showing map with azimuth and elevation plus other details from your city location.

Track the satellite on the map from your city or location and see movement details for azimuth, elevation, latitude, longitude, range, height, and movement on the map or in text.







IsCatalogInMostPopularTable: catalog: 44294, numindb: 1193
Update: records affected: 1



GetName: 44294 STARLINK BM

Hit Count: updated at: Fri, 19 Jul 2019 08:15:01 GMT